Starlink 30290

operational
NORAD ID: 57858 Int'l Des: 2023-141 Owner: SPXS Country: US Constellation: starlink
LEOCIRCULAR

About Starlink 30290

Description loading...

Live Position

Loading 3D Globe...

Upcoming Passes

Altitude History

Altitude vs Time

uPlot chart will show altitude changes over time

Two-Line Element Set

1 57858U 23141U 26034.54915006 -.00000167 00000-0 64893-5 0 9999
2 57858 53.1586 82.5100 0001186 78.1209 281.9925 15.30188680135108
Epoch: Feb 3, 2026 • Age: 15 hours

Current Status

Altitude 480.9 km
Velocity 7.63 km/s
Sub-Earth Point -18.84°S, 77.39°E
Launch Date Sep 12, 2023
Age 2.3 years
Type internet

Technical Details

Classification Payload
Mass 730.00 kg
Dry Mass 700.00 kg
Total Mass 730.00 kg
Length 0.30 m
Diameter 4.10 m
Span 29.00 m
Shape Box + pan
Manufacturer SPXS
Bus Type Starlink V2M
Phase Status In Orbit
Owner/State SPXS/US

Large Constellations

Loading constellations...